[[{"header":{"parameterUnit":"m.s-1","parameterCategory":1,"la1":30.2992,"la2":30.254,"lo1":-89.0895,"lo2":-89.0443,"dy":0.0025,"dx":0.0025,"nx":19,"ny":19,"refTime":"2026-05-13T03:00:00:Z","depth":0,"parameterNumber":2,"parameterNumberName":"U-component_of_WINDS"},"data":[0,0,0,-0.7634,-0.7632,-0.7537,-0.7536,-0.7418,-0.7417,0,0,0,0,0,0,0,0,0,0,0,-0.7667,-0.7667,-0.7635,-0.7632,-0.7537,-0.7536,-0.7418,-0.7417,0,0,0,0,0,0,0,0,0,0,0,-0.7668,-0.7667,-0.7666,-0.7632,-0.7537,-0.7536,-0.7418,-0.7489,0,0,0,0,0,0,0,0,0,0,-0.7581,-0.7617,-0.7667,-0.7666,-0.7631,-0.7537,-0.7536,-0.7492,-0.7484,-0.7464,0,-0.7449,0,-0.7431,-0.741,-0.7409,0,0,0,-0.7628,-0.7623,-0.7593,-0.7666,-0.7631,-0.7537,-0.7579,-0.7488,-0.7479,-0.7454,-0.7447,-0.7443,-0.7429,-0.7409,-0.7408,-0.7306,-0.7306,0,0,-0.7633,-0.7653,-0.7599,-0.7588,-0.7605,-0.7582,-0.7576,-0.7482,-0.7476,-0.7447,-0.744,-0.7427,-0.7408,-0.7407,-0.7307,-0.7306,0,0,0,-0.7651,-0.7656,-0.7628,-0.7593,-0.7575,-0.7579,-0.7572,-0.748,-0.7469,-0.7438,-0.7426,-0.7407,-0.7406,-0.7307,-0.7306,-0.731,0,0,0,-0.7654,-0.7667,-0.7631,-0.7642,-0.7577,-0.7527,-0.7572,-0.7476,-0.7465,-0.7426,-0.7407,-0.7405,-0.7307,-0.7307,-0.731,-0.7308,0,0,0,-0.7672,-0.7669,-0.7657,-0.7643,-0.7603,-0.7528,-0.7512,-0.7473,-0.7457,-0.7409,-0.7405,-0.7307,-0.7307,-0.7311,-0.7309,-0.7285,0,0,0,-0.7696,-0.7662,-0.7657,-0.7614,-0.7604,-0.7532,-0.7512,-0.7458,-0.7417,-0.7407,-0.7307,-0.7306,-0.7311,-0.7309,-0.7285,-0.7267,-0.7262,0,0,-0.7664,-0.7659,-0.7632,-0.7625,-0.7559,-0.7545,-0.7478,-0.7423,-0.74,-0.7338,-0.7335,-0.731,-0.7309,-0.7285,-0.7228,-0.7224,0,0,0,-0.7628,-0.7609,-0.7587,-0.755,-0.7507,-0.7469,-0.7422,-0.74,-0.7347,-0.7373,-0.7295,-0.7294,-0.7279,-0.7269,-0.7266,-0.725,-0.7303,-0.7303,-0.7303,-0.761,-0.7583,-0.7535,-0.7496,-0.746,-0.741,-0.7377,-0.7339,-0.7324,-0.7305,-0.7286,-0.7255,-0.7245,-0.7242,-0.7226,-0.7276,-0.7276,-0.7276,-0.7276,-0.7558,-0.7526,-0.7504,-0.745,-0.742,-0.7374,-0.7323,-0.7313,-0.7263,-0.7268,-0.7254,-0.726,-0.7238,-0.7223,-0.7276,-0.7276,-0.7276,-0.7276,-0.7276,-0.7542,-0.7521,-0.7497,-0.7437,-0.7394,-0.7355,-0.7308,-0.7283,-0.7259,-0.7244,-0.722,-0.7219,-0.7214,-0.7235,-0.7235,-0.7234,-0.7234,-0.7234,-0.7234,-0.7534,-0.7506,-0.747,-0.742,-0.7391,-0.7349,-0.7297,-0.7267,-0.7226,-0.7211,-0.7211,-0.7194,-0.7242,-0.7254,-0.7232,-0.7233,-0.7233,-0.7233,-0.7233,-0.749,-0.7495,-0.7441,-0.7411,-0.7348,-0.7304,-0.7273,-0.7213,-0.7184,-0.7161,-0.7147,-0.7187,-0.718,-0.7182,-0.7191,-0.7155,-0.7155,-0.7155,-0.7155,-0.7475,-0.7469,-0.7405,-0.7359,-0.7311,-0.7276,-0.721,-0.7168,-0.7125,-0.7104,-0.7106,-0.7116,-0.712,-0.711,-0.7114,-0.7122,-0.7069,-0.7069,-0.7069,-0.7445,-0.7432,-0.7383,-0.7342,-0.7289,-0.7244,-0.718,-0.7126,-0.7078,-0.7065,-0.7087,-0.709,-0.7107,-0.7114,-0.7101,-0.7108,-0.7122,0,0]},{"header":{"parameterUnit":"m.s-1","parameterCategory":1,"la1":30.2992,"la2":30.254,"lo1":-89.0895,"lo2":-89.0443,"dy":0.0025,"dx":0.0025,"nx":19,"ny":19,"refTime":"2026-05-13T03:00:00:Z","depth":0,"parameterNumber":3,"parameterNumberName":"V-component_of_WINDS"},"data":[0,0,0,-1.4804,-1.4804,-1.4803,-1.4803,-1.4787,-1.4787,0,0,0,0,0,0,0,0,0,0,0,-1.4796,-1.4795,-1.4804,-1.4804,-1.4803,-1.4803,-1.4788,-1.4787,0,0,0,0,0,0,0,0,0,0,0,-1.4796,-1.4795,-1.4795,-1.4804,-1.4803,-1.4803,-1.4788,-1.4793,0,0,0,0,0,0,0,0,0,0,-1.4796,-1.478,-1.4795,-1.4795,-1.4804,-1.4803,-1.4803,-1.4794,-1.4793,-1.4781,0,-1.477,0,-1.4778,-1.4785,-1.4785,0,0,0,-1.481,-1.4781,-1.4789,-1.4795,-1.4804,-1.4803,-1.4805,-1.4793,-1.4792,-1.478,-1.477,-1.477,-1.4778,-1.4785,-1.4785,-1.4701,-1.47,0,0,-1.481,-1.4791,-1.4789,-1.4788,-1.4788,-1.4805,-1.4805,-1.4793,-1.478,-1.477,-1.4769,-1.4778,-1.4785,-1.4785,-1.4701,-1.47,0,0,0,-1.4806,-1.479,-1.4799,-1.4788,-1.4789,-1.4805,-1.4805,-1.478,-1.4785,-1.4769,-1.4778,-1.4785,-1.4784,-1.4702,-1.4701,-1.4647,0,0,0,-1.4806,-1.4788,-1.4798,-1.4787,-1.4789,-1.4785,-1.4792,-1.4786,-1.4785,-1.4778,-1.4785,-1.4784,-1.4703,-1.4701,-1.465,-1.4623,0,0,0,-1.4798,-1.4787,-1.4785,-1.4786,-1.4785,-1.4786,-1.479,-1.4786,-1.479,-1.4785,-1.4784,-1.4703,-1.4702,-1.4653,-1.4628,-1.4593,0,0,0,-1.4784,-1.4737,-1.4783,-1.4734,-1.4785,-1.4754,-1.479,-1.4768,-1.4758,-1.4785,-1.4703,-1.4701,-1.4654,-1.4631,-1.4595,-1.4556,-1.454,0,0,-1.4714,-1.4728,-1.4701,-1.4742,-1.4697,-1.4755,-1.4703,-1.4712,-1.4729,-1.4709,-1.4707,-1.4649,-1.4628,-1.4593,-1.446,-1.4446,0,0,0,-1.4672,-1.4651,-1.4644,-1.4634,-1.464,-1.4643,-1.4662,-1.4665,-1.4649,-1.4715,-1.463,-1.4618,-1.4598,-1.458,-1.4569,-1.4551,-1.4693,-1.4694,-1.4694,-1.4541,-1.4567,-1.4522,-1.4547,-1.4538,-1.4558,-1.4552,-1.456,-1.4588,-1.4568,-1.456,-1.4476,-1.4455,-1.4446,-1.4428,-1.4546,-1.4546,-1.4545,-1.4545,-1.4437,-1.441,-1.4451,-1.4421,-1.4448,-1.4424,-1.4443,-1.4464,-1.4444,-1.4484,-1.4468,-1.4506,-1.4431,-1.4415,-1.4542,-1.4542,-1.4543,-1.4543,-1.4543,-1.435,-1.4341,-1.4348,-1.4336,-1.4324,-1.4352,-1.4331,-1.4358,-1.4382,-1.4367,-1.4359,-1.436,-1.4361,-1.4362,-1.4362,-1.4362,-1.4362,-1.4361,-1.4361,-1.4255,-1.4265,-1.4243,-1.4248,-1.4244,-1.4243,-1.4266,-1.4263,-1.4266,-1.4287,-1.4287,-1.4314,-1.4421,-1.4444,-1.4357,-1.4357,-1.4358,-1.4358,-1.4359,-1.4131,-1.4164,-1.4131,-1.4128,-1.4134,-1.4119,-1.4155,-1.4147,-1.4149,-1.4137,-1.4171,-1.4247,-1.4262,-1.4271,-1.429,-1.4168,-1.4168,-1.4168,-1.4168,-1.4053,-1.4066,-1.4038,-1.403,-1.4027,-1.4057,-1.4017,-1.4034,-1.4057,-1.4059,-1.4082,-1.4111,-1.412,-1.413,-1.4142,-1.416,-1.4008,-1.4008,-1.4008,-1.3976,-1.399,-1.395,-1.3974,-1.3982,-1.3987,-1.395,-1.3939,-1.3972,-1.4002,-1.406,-1.4067,-1.4115,-1.413,-1.4155,-1.4174,-1.4207,0,0]}]]